Temperature
19 19 18 18 18 18 18 18 18 17 17 17 17 17 17 17 17 17 17 17 17 16 16 16 16 16 16 16 15 15 15 15 16 16 16 16 16 16 16 16 15 15 15
20 19 18 18 18 18 18 18 17 17 17 17 17 17 17 17 17 17 17 17 17 16 16 16 16 16 16 16 16 15 15 16 16 16 16 16 16 16 15 15 15 15 15
19 19 18 18 18 18 18 18 17 17 17 17 17 17 17 17 17 17 17 17 17 16 16 16 16 16 16 16 16 16 16 16 16 16 16 16 15 15 15 15 15 15 15
19 18 18 18 18 18 18 17 17 17 17 17 17 17 17 17 17 17 17 17 16 16 16 16 16 16 16 16 16 16 16 16 16 16 16 15 15 15 15 15 15 15 15
19 18 18 18 18 18 17 17 17 17 17 17 16 16 16 16 16 16 16 17 16 16 16 16 16 16 16 15 15 15 15 15 15 15 15 15 15 15 15 15 15 15 15
18 18 18 18 18 17 17 17 17 17 17 16 16 16 16 16 16 16 16 16 16 17 16 16 16 16 16 15 15 15 15 15 15 15 15 15 15 15 15 15 15 15 15
18 18 18 18 17 17 17 17 17 16 16 16 16 16 16 16 16 16 16 16 17 17 16 16 16 16 16 15 15 15 15 15 15 15 15 15 15 15 15 15 15 14 14
18 17 17 17 17 17 17 17 16 16 16 16 16 16 16 16 16 16 16 16 17 17 16 16 16 16 16 15 15 15 15 15 15 15 15 15 15 15 14 15 14 14 14
17 17 17 16 17 16 16 16 16 16 16 16 16 16 16 16 16 16 16 16 16 17 16 16 16 16 16 15 15 15 15 15 15 15 15 15 15 14 14 14 14 14 14
16 16 16 16 16 16 16 16 16 16 16 16 16 16 16 16 16 16 16 16 16 16 16 16 16 16 15 15 15 15 15 15 15 15 15 14 14 14 14 14 14 14 14
15 16 16 16 16 16 16 16 16 16 16 15 15 15 15 15 16 16 16 16 16 16 16 16 16 16 15 15 15 15 15 15 15 15 14 14 14 14 14 14 14 14 14
15 15 15 15 15 15 15 15 15 15 15 15 15 15 15 15 15 16 16 16 16 16 16 16 16 15 15 15 15 15 15 15 14 14 14 14 14 14 14 14 14 13 13
15 15 15 15 15 15 15 15 15 15 15 15 15 15 15 15 15 15 15 15 16 16 16 16 16 15 15 15 15 15 15 14 14 14 14 14 14 14 14 14 13 13 13
14 14 14 14 14 15 15 15 15 15 15 15 15 15 15 15 15 15 15 15 16 16 16 16 15 15 15 15 15 14 14 14 14 14 14 14 14 14 14 13 13 13 13
14 14 14 14 14 14 14 15 15 15 15 15 15 15 15 15 15 15 15 15 15 15 15 15 15 15 15 15 15 14 14 14 14 14 14 14 14 14 13 13 13 13 13
13 14 14 14 14 14 14 14 14 15 15 14 15 15 15 15 15 15 15 15 15 15 15 15 15 15 15 15 14 14 14 14 14 14 14 14 14 14 13 13 13 13 13
13 13 13 13 13 14 14 14 14 14 14 14 14 15 15 15 15 15 15 15 15 15 15 15 15 14 14 14 14 14 14 14 14 14 14 14 14 13 13 13 13 13 13
13 13 13 13 13 13 14 14 14 14 14 14 14 14 14 14 14 15 15 15 15 15 15 14 14 14 14 14 14 14 14 14 14 14 13 13 13 13 13 13 13 13 12
13 13 13 13 13 13 13 13 13 13 14 14 14 14 14 14 14 14 14 15 14 14 14 14 14 14 14 14 14 13 13 13 13 13 13 13 13 13 13 13 12 12 12
13 13 13 13 12 12 13 13 13 13 13 13 13 13 14 14 14 14 14 14 14 14 14 14 14 13 13 13 13 13 13 13 13 13 13 13 13 13 12 12 12 12 12
12 12 12 12 12 12 12 12 13 13 13 13 13 13 13 14 14 13 14 13 13 13 13 13 13 13 13 13 12 12 12 13 13 12 12 12 12 12 12 12 12 12 11
12 12 12 12 12 12 12 12 12 12 12 12 13 13 13 13 13 13 13 13 13 13 13 13 13 13 12 12 12 12 11 12 12 12 12 12 12 12 12 12 11 11 11
11 12 12 12 12 12 12 12 12 12 12 12 12 12 12 13 13 13 13 13 13 13 13 13 12 12 12 12 12 12 11 11 11 11 11 11 11 11 11 11 11 11 11
11 11 11 11 11 11 11 11 12 12 12 12 12 12 12 12 12 13 13 13 13 12 12 12 12 12 12 12 11 11 12 12 11 11 11 11 11 11 11 11 10 10 10
10 11 11 11 11 11 11 11 11 11 11 11 11 11 12 12 12 12 12 12 12 12 12 12 12 12 11 11 11 11 11 11 11 11 10 10 10 10 10 10 10 10 10
10 10 10 10 10 10 10 10 10 10 11 11 11 11 11 11 11 12 12 12 12 12 11 11 11 11 11 11 11 11 11 11 11 11 10 10 10 10 10 10 10 10 9
Wind_Speed
10 15 22 21 21 20 20 19 19 19 18 18 19 19 19 19 19 19 19 19 19 18 18 18 18 18 18 19 19 18 18 18 17 17 17 17 17 17 17 16 16 15 17
14 20 23 22 21 21 20 19 19 19 18 18 19 19 19 19 19 19 19 19 18 18 18 18 18 18 18 18 17 17 17 16 16 16 16 16 16 16 16 16 15 15 16
16 19 22 23 22 21 20 20 20 19 19 19 19 19 19 19 19 19 19 18 18 18 18 18 17 17 17 16 16 15 14 13 13 13 13 13 14 15 15 15 15 15 15
15 17 20 22 22 21 20 20 20 20 20 19 19 19 19 19 19 19 18 18 18 18 17 17 16 16 15 14 13 13 12 11 11 11 11 11 11 13 13 13 13 13 13
13 16 18 21 22 21 20 20 20 20 20 19 20 19 19 19 19 19 19 18 18 17 17 16 15 15 13 12 11 11 11 11 12 12 11 11 10 12 12 12 12 12 12
11 14 18 21 21 21 20 20 20 20 20 19 20 20 19 19 19 19 18 18 18 17 16 15 14 13 12 10 9 10 10 12 12 11 10 10 10 11 11 11 11 11 11
11 12 17 20 20 20 20 20 20 20 20 20 20 20 20 19 19 19 18 18 17 16 16 15 14 12 10 9 9 9 10 11 11 10 9 8 9 10 10 10 9 9 9
12 11 15 19 19 19 19 20 20 20 20 20 20 20 20 20 19 19 19 18 17 16 15 14 13 12 10 8 7 8 9 10 9 8 7 7 8 9 8 8 8 8 8
9 10 10 14 16 17 18 19 20 20 20 20 20 20 20 20 19 19 19 18 17 16 15 14 12 11 9 7 6 6 7 8 8 7 6 6 7 7 7 7 6 6 6
7 9 9 9 11 13 14 17 19 20 20 19 20 20 19 19 18 19 18 18 17 16 15 13 12 10 8 6 5 5 6 7 7 6 6 7 7 7 6 6 5 5 5
6 7 8 8 9 10 12 14 16 18 19 19 19 20 19 17 17 17 17 17 16 15 14 13 12 10 7 5 4 4 4 6 6 6 7 8 7 6 6 6 5 4 3
8 7 7 8 8 9 10 11 11 13 15 15 16 17 16 15 15 15 17 17 17 15 14 13 11 9 7 5 4 3 4 6 6 7 8 9 8 7 6 6 5 4 3
8 8 7 7 8 8 7 9 8 9 11 13 15 16 15 13 13 13 13 14 14 14 12 11 10 9 7 6 5 4 5 6 7 7 9 10 9 8 7 7 5 4 3
7 7 8 7 7 7 7 7 7 7 7 9 13 15 13 9 8 10 9 11 11 11 10 9 8 8 8 8 7 6 6 7 8 8 10 11 10 9 8 7 6 5 5
7 7 8 8 8 7 6 6 7 7 8 10 13 15 14 9 8 8 9 10 10 11 9 7 7 6 6 6 7 6 6 7 9 9 9 11 11 10 9 8 7 6 5
6 7 7 8 8 7 6 5 6 7 9 10 11 14 16 12 9 8 7 8 9 11 11 9 8 6 5 5 4 6 6 6 8 9 9 10 11 11 10 8 7 6 6
5 5 6 8 8 8 7 6 6 7 9 8 10 14 15 14 12 9 8 7 9 11 11 8 7 5 4 4 4 4 5 6 8 9 10 10 10 10 10 9 8 7 6
5 5 5 6 7 7 6 6 5 6 7 7 9 11 13 14 13 9 8 7 9 10 8 5 5 4 4 4 4 4 3 5 6 8 9 9 10 9 9 9 8 7 6
5 5 4 4 5 6 5 5 4 4 5 6 8 8 10 12 12 9 7 6 9 6 5 6 5 4 4 4 4 3 3 4 4 6 6 8 9 9 9 8 8 7 6
5 5 4 4 4 4 4 3 3 3 3 4 5 7 9 10 11 9 6 7 7 6 5 5 5 4 4 4 3 2 2 3 3 4 5 6 7 8 8 8 7 6 6
4 4 4 4 3 4 3 3 3 3 3 4 5 7 8 9 10 8 7 7 7 7 8 7 5 4 3 3 1 1 2 2 3 4 3 4 5 7 7 7 7 6 4
3 4 4 3 3 3 3 3 2 3 3 4 4 4 6 7 9 8 8 7 7 6 7 7 5 4 3 4 3 2 2 3 3 3 3 4 4 5 5 6 6 6 5
2 3 3 3 3 3 3 2 2 1 1 2 2 3 4 6 7 8 8 8 7 7 8 8 8 7 5 5 4 4 3 5 2 2 3 4 4 4 4 5 6 6 6
2 2 2 3 3 2 2 2 3 3 3 3 4 4 4 4 5 6 7 7 7 7 7 8 7 5 6 6 4 4 3 3 3 3 2 3 4 5 5 4 5 6 7
3 3 2 3 2 2 2 2 2 2 2 2 3 4 4 4 5 5 5 7 7 7 7 7 7 6 6 6 5 3 3 2 2 3 4 3 2 3 3 4 5 5 6
5 4 3 3 2 1 1 1 2 2 2 2 3 4 4 4 4 5 5 5 6 6 7 7 7 7 7 6 5 4 4 3 4 4 4 3 4 3 2 3 4 5 6
Wind_Direction
168 166 166 162 158 154 152 150 148 145 143 140 138 134 132 130 128 127 126 125 122 118 115 112 109 106 105 104 102 99 95 92 88 85 84 84 84 84 82 78 74 72 73
158 163 164 162 159 157 155 154 152 149 147 146 143 140 138 135 134 131 129 128 125 120 117 114 112 110 109 108 105 102 99 95 92 90 87 86 86 86 84 82 79 78 75
152 160 162 162 160 159 157 156 155 153 152 150 148 145 143 141 139 137 133 130 127 123 119 117 115 114 113 111 108 104 101 98 97 95 92 90 91 90 87 84 81 79 77
150 157 162 163 162 161 160 159 158 157 156 154 153 151 148 146 143 140 137 134 129 126 123 121 119 118 117 115 111 107 100 97 101 100 93 92 94 93 90 87 84 81 78
150 155 160 163 163 163 162 161 160 160 159 157 155 154 153 151 147 143 140 136 131 128 126 126 125 124 120 115 111 106 98 99 104 101 97 94 95 96 92 89 86 84 80
149 154 159 162 164 163 163 163 163 162 162 160 158 157 156 154 151 145 141 138 134 132 131 131 132 130 124 117 112 103 101 106 107 106 105 101 103 102 97 93 89 87 83
149 152 159 161 163 164 165 165 166 165 165 163 160 159 158 155 151 147 143 141 140 138 138 137 137 136 131 122 115 107 113 115 114 115 115 112 114 110 104 99 93 90 85
151 154 160 162 163 166 168 168 170 169 167 166 163 162 159 156 153 149 147 146 146 144 144 144 144 143 139 130 118 113 119 121 119 119 123 125 124 118 113 106 101 96 91
151 150 155 161 163 166 170 172 172 170 168 167 165 163 160 156 155 153 151 152 152 151 151 151 152 152 150 142 128 122 129 133 132 134 137 140 138 131 126 120 111 104 100
151 153 151 151 158 161 167 172 171 169 168 166 163 160 158 156 157 156 157 158 158 157 157 158 160 162 162 156 142 135 138 143 146 150 154 157 155 148 143 138 130 121 111
160 163 158 157 153 157 162 168 168 168 168 165 162 159 157 157 158 159 162 163 163 163 164 167 170 173 175 177 173 160 157 160 160 161 167 170 170 166 164 162 154 141 130
176 175 165 163 160 158 165 163 165 169 168 167 165 162 161 161 162 164 166 167 168 170 173 177 180 183 187 194 199 186 176 175 173 177 183 183 182 181 181 179 172 169 168
183 179 171 168 164 163 159 160 162 165 167 168 167 167 165 163 165 165 168 171 171 173 177 182 185 191 194 202 211 206 190 186 186 188 192 193 192 191 190 187 190 195 202
181 180 174 172 170 164 159 164 163 162 166 172 173 170 168 169 170 172 174 176 176 180 181 184 189 198 205 215 219 212 201 191 193 195 197 198 198 198 197 198 201 209 217
183 183 177 169 167 168 161 171 171 171 175 178 178 176 174 175 175 176 179 181 183 184 184 188 194 200 210 217 217 208 204 199 199 198 199 199 200 202 204 208 213 219 224
189 186 180 177 172 169 171 174 178 179 178 180 184 184 180 178 178 178 179 183 187 188 190 193 196 201 211 210 214 210 207 199 198 196 198 199 202 204 206 213 220 227 229
192 188 187 183 180 177 180 180 185 184 183 185 189 187 184 182 181 180 181 185 190 190 190 191 196 200 210 213 215 213 201 195 194 197 200 200 201 207 211 216 221 226 233
174 184 187 190 181 181 183 179 183 186 184 186 187 187 185 184 183 181 183 188 191 189 187 192 194 197 210 210 213 216 206 195 198 199 200 200 199 203 210 213 215 222 229
156 165 170 170 172 181 183 181 167 174 181 179 181 185 186 184 182 183 186 189 190 189 195 202 199 193 204 209 212 219 214 210 209 203 202 200 199 199 202 204 203 208 214
134 147 145 145 161 176 173 166 152 150 180 181 181 183 183 183 181 183 185 188 189 193 201 206 206 204 203 199 208 228 242 227 211 208 207 195 195 197 197 191 188 197 202
111 129 137 137 155 167 168 165 170 184 191 198 192 186 186 184 184 185 186 189 192 199 204 201 205 204 209 180 165 265 289 270 237 223 204 190 191 190 183 182 182 181 185
133 125 133 150 143 147 162 169 167 181 197 208 202 195 199 196 193 191 189 195 197 199 202 202 198 202 211 189 178 192 251 274 266 243 217 200 201 184 178 176 169 170 170
124 138 148 143 129 134 140 137 137 136 167 193 208 206 216 215 208 201 194 193 198 199 205 208 203 202 213 213 197 190 202 231 240 245 230 209 195 192 189 172 168 171 171
94 102 109 116 115 119 125 132 156 179 196 208 204 215 218 218 211 209 202 196 201 205 209 211 209 212 204 215 220 221 214 186 202 234 250 224 202 199 195 183 170 168 166
82 89 91 95 104 98 122 156 162 195 205 204 195 213 220 220 218 209 204 199 204 209 212 211 211 214 213 215 215 217 227 226 204 206 226 224 224 216 200 184 170 164 162
45 53 65 75 80 120 127 137 163 184 191 192 200 219 227 230 227 215 210 205 210 213 212 214 213 214 219 219 219 213 210 215 217 207 219 216 216 216 205 188 176 166 160
Height
1499 1502 1505 1508 1511 1513 1515 1517 1519 1521 1523 1525 1527 1529 1530 1532 1533 1535 1536 1537 1538 1539 1541 1542 1542 1543 1544 1545 1545 1546 1546 1546 1546 1547 1547 1547 1547 1547 1547 1546 1546 1545 1545
1497 1501 1504 1507 1510 1512 1515 1517 1519 1521 1523 1525 1527 1529 1531 1532 1534 1536 1537 1538 1539 1541 1542 1543 1544 1545 1546 1546 1547 1547 1548 1548 1548 1548 1549 1549 1549 1548 1548 1548 1548 1547 1547
1497 1500 1503 1506 1509 1512 1514 1516 1519 1521 1523 1525 1527 1529 1531 1533 1535 1536 1538 1539 1540 1542 1543 1544 1545 1546 1547 1548 1548 1549 1549 1549 1550 1550 1550 1550 1550 1550 1550 1549 1549 1548 1548
1498 1500 1503 1506 1509 1511 1513 1516 1518 1521 1523 1525 1528 1530 1532 1533 1535 1537 1538 1540 1541 1542 1544 1545 1546 1547 1548 1549 1549 1550 1550 1551 1551 1551 1551 1551 1551 1551 1551 1551 1550 1550 1549
1498 1500 1502 1505 1508 1510 1513 1515 1518 1520 1523 1525 1527 1530 1532 1534 1535 1537 1539 1540 1542 1543 1545 1546 1547 1549 1549 1550 1551 1551 1552 1552 1552 1553 1553 1553 1553 1552 1552 1552 1551 1551 1550
1497 1499 1501 1504 1507 1510 1512 1515 1517 1520 1523 1525 1527 1530 1532 1534 1536 1537 1539 1541 1542 1544 1545 1547 1548 1550 1550 1551 1552 1552 1553 1553 1553 1554 1554 1554 1554 1553 1553 1552 1552 1551 1551
1496 1499 1501 1504 1506 1509 1512 1514 1517 1519 1522 1525 1527 1529 1531 1533 1535 1537 1539 1541 1543 1544 1546 1548 1549 1550 1551 1552 1553 1553 1554 1554 1554 1555 1555 1555 1554 1554 1554 1553 1553 1552 1551
1495 1498 1500 1503 1506 1508 1511 1513 1516 1519 1521 1524 1527 1529 1531 1533 1535 1537 1539 1541 1543 1545 1546 1548 1549 1551 1552 1553 1553 1554 1555 1555 1555 1555 1555 1555 1555 1555 1554 1554 1553 1552 1552
1495 1497 1499 1502 1505 1508 1510 1513 1515 1518 1521 1523 1526 1528 1531 1533 1535 1537 1539 1541 1543 1545 1546 1548 1550 1551 1552 1553 1554 1554 1555 1555 1555 1556 1556 1555 1555 1555 1554 1554 1553 1553 1552
1495 1496 1498 1500 1503 1506 1508 1511 1514 1517 1520 1522 1525 1528 1530 1532 1535 1537 1539 1541 1543 1544 1546 1548 1550 1551 1552 1553 1554 1554 1555 1555 1556 1556 1556 1555 1555 1555 1554 1554 1553 1553 1552
1493 1495 1497 1499 1501 1504 1506 1509 1513 1516 1518 1521 1524 1526 1529 1531 1534 1536 1538 1540 1542 1544 1546 1548 1549 1551 1552 1553 1554 1554 1554 1555 1555 1555 1555 1555 1555 1554 1554 1554 1553 1552 1551
1491 1493 1495 1497 1500 1502 1505 1508 1511 1514 1517 1520 1522 1525 1528 1530 1533 1535 1537 1539 1541 1543 1545 1547 1548 1550 1551 1552 1553 1553 1554 1554 1554 1555 1554 1554 1554 1554 1553 1553 1552 1551 1551
1489 1491 1493 1495 1498 1500 1502 1506 1508 1511 1515 1518 1521 1523 1526 1529 1531 1533 1536 1538 1540 1542 1544 1545 1547 1548 1550 1551 1552 1552 1553 1553 1553 1554 1554 1553 1553 1553 1552 1552 1551 1550 1550
1486 1488 1491 1493 1495 1498 1500 1503 1506 1509 1512 1515 1518 1521 1524 1526 1529 1531 1534 1536 1538 1540 1542 1544 1545 1547 1548 1550 1550 1551 1551 1552 1552 1552 1552 1552 1552 1551 1551 1550 1549 1549 1548
1483 1486 1489 1491 1493 1495 1498 1501 1504 1507 1510 1513 1516 1519 1522 1524 1527 1529 1532 1534 1536 1538 1540 1542 1543 1545 1546 1547 1548 1549 1549 1550 1550 1550 1550 1550 1550 1550 1549 1548 1548 1547 1546
1481 1483 1486 1489 1491 1493 1496 1498 1501 1504 1508 1511 1514 1517 1519 1522 1525 1527 1529 1531 1534 1536 1538 1539 1541 1543 1544 1545 1545 1546 1547 1547 1547 1548 1548 1547 1547 1547 1547 1546 1546 1545 1544
1478 1480 1483 1487 1489 1491 1493 1496 1499 1502 1505 1508 1511 1514 1517 1520 1522 1524 1526 1529 1531 1533 1535 1537 1538 1540 1541 1542 1542 1543 1544 1544 1544 1545 1545 1545 1544 1544 1544 1544 1543 1542 1542
1475 1477 1480 1484 1486 1488 1491 1493 1496 1499 1502 1505 1508 1511 1514 1517 1519 1521 1523 1526 1528 1530 1532 1533 1535 1536 1537 1538 1539 1540 1540 1541 1541 1541 1541 1541 1541 1541 1541 1541 1540 1540 1539
1471 1475 1477 1480 1483 1486 1488 1491 1493 1496 1499 1502 1505 1508 1510 1513 1516 1518 1520 1522 1525 1526 1528 1530 1531 1532 1533 1534 1536 1536 1536 1537 1537 1537 1537 1538 1537 1537 1537 1537 1537 1536 1536
1469 1472 1475 1477 1480 1483 1485 1487 1490 1493 1496 1499 1501 1504 1507 1510 1512 1514 1516 1518 1520 1522 1524 1526 1527 1528 1530 1531 1532 1532 1532 1532 1533 1533 1533 1533 1533 1533 1533 1533 1533 1533 1532
1467 1470 1472 1475 1477 1480 1482 1484 1486 1488 1492 1495 1497 1500 1503 1506 1508 1510 1511 1514 1516 1517 1519 1521 1523 1524 1525 1527 1527 1527 1527 1528 1528 1528 1528 1528 1528 1528 1528 1529 1529 1529 1528
1465 1467 1469 1472 1474 1476 1479 1481 1484 1486 1488 1491 1493 1496 1499 1502 1503 1505 1507 1509 1511 1513 1514 1516 1518 1519 1520 1522 1522 1522 1522 1523 1522 1522 1522 1523 1523 1523 1523 1523 1524 1524 1524
1464 1466 1468 1470 1472 1474 1476 1478 1481 1483 1484 1487 1489 1491 1494 1497 1498 1500 1502 1504 1506 1508 1509 1511 1513 1513 1514 1516 1517 1518 1517 1515 1516 1516 1517 1517 1518 1518 1518 1519 1519 1519 1520
1462 1464 1466 1468 1470 1472 1474 1476 1478 1479 1479 1481 1484 1487 1490 1492 1494 1496 1497 1499 1501 1503 1504 1505 1507 1508 1509 1509 1511 1511 1512 1511 1512 1510 1511 1512 1512 1513 1513 1514 1514 1514 1515
1461 1463 1464 1466 1468 1469 1471 1473 1475 1476 1477 1479 1481 1483 1485 1488 1490 1491 1492 1494 1495 1497 1498 1500 1501 1502 1503 1504 1504 1505 1505 1505 1505 1505 1505 1505 1506 1507 1508 1508 1509 1509 1510
1461 1462 1464 1464 1466 1468 1469 1470 1472 1472 1473 1475 1477 1479 1480 1482 1484 1486 1487 1488 1490 1491 1492 1494 1495 1496 1497 1498 1498 1499 1499 1499 1499 1499 1499 1498 1500 1501 1502 1503 1503 1504 1504